Location: St Paul
(33.4390°N, 83.7350°W)
Time: 21:15:09
(UTC-04:00)

GP-B - Pass Details

Date: 06 October 2017
Orbit: 631 x 636 km, 89.8° (Epoch: 21 October)

Event Time Altitude Azimuth Distance (km) Brightness Sun altitude
Rises 19:46:15 0° 14° (NNE) 2,928 6.4 -7.9°
Reaches altitude 10° 19:48:42 10° 25° (NNE) 2,016 5.4 -8.4°
Maximum altitude 19:52:37 30° 88° (E) 1,126 3.8 -9.2°
Drops below altitude 10° 19:56:30 10° 150° (SSE) 2,004 5.4 -10.0°
Sets 19:58:55 0° 161° (SSE) 2,908 6.3 -10.5°
